Weather Roundup
Issued by NWS Chicago, IL

Home | Current Version | Previous Version | Text Only | Print | Product List | Glossary Off
Versions: 1 2 3 4 5 6 7 8 9 10 11 12 13 14 15 16 17 18 19 20 21 22 23 24 25 26 27 28 29 30 31 32 33 34 35 36 37 38 39 40 41 42 43 44 45 46 47 48 49 50

000
NZUS59 KLOT 290402
HRRLOT

CHICAGO AREA WEATHER ROUNDUP
NATIONAL WEATHER SERVICE CHICAGO/ROMEOVILLE IL
1100 PM CDT SAT MAR 28 2015

NOTE: "FAIR" INDICATES FEW OR NO CLOUDS BELOW 12,000 FEET WITH NO
SIGNIFICANT WEATHER AND/OR OBSTRUCTIONS TO VISIBILITY.

* THESE STATIONS ARE NOT UNDER NWS QUALITY CONTROL. THEY ALSO MAY NOT
  REPORT WEATHER SUCH AS PRECIPITATION OR FOG.

ILZ005-006-012>014-019>023-290500-
NORTHEAST ILLINOIS

CITY           SKY/WX    TMP DP  RH WIND       PRES   REMARKS
OHARE            N/A     24  13  62 S7        30.27F WCI  16
MIDWAY         CLEAR     29  15  56 SE6       30.29F WCI  23
AURORA         CLEAR     26  13  57 SE8       30.28S WCI  18
LANSING*       CLEAR     23  11  58 SE3       30.30F
WAUKEGAN         N/A     26  13  57 S7        30.25F WCI  18
DUPAGE AIRPORT CLEAR     25  11  55 S7        30.26F WCI  17
WHEELING       CLEAR     24  11  57 S6        30.28F WCI  17
NORTHERLY IS     N/A     30  20  66 SE9         N/A  WCI  22
$$

WIZ051-052-058>065-066-070>072-290500-
SOUTHEAST WISCONSIN

CITY           SKY/WX    TMP DP  RH WIND       PRES   REMARKS
MILWAUKEE      CLEAR     26  12  55 S8        30.25F WCI  18
KENOSHA*       CLEAR     25  15  66 S8        30.25F WCI  16
RACINE*        CLEAR     26  14  60 S6        30.26F WCI  19
$$

INZ001>003-010>013-019-020-290500-
NORTHWEST INDIANA

CITY           SKY/WX    TMP DP  RH WIND       PRES   REMARKS
GARY*          CLEAR     26  10  50 SE3       30.31F
MICHIGAN CITY* NOT AVBL
RENSSELAER*    NOT AVBL
$$

LMZ740>746-290500-
SOUTHERN LAKE MICHIGAN

STATION/POSITION TIME  SKY/WX   TEMP WIND        PRES    VSBY
                                AIR  DIR/SP/G
                 (UTC)          (F)  (DEG/KT/KT) (MB)    (MI)
HARRISON CRIB    0300            29  150/ 10/ 13   N/A
BURNHAM HARBOR   0400            31  150/  8/  9   N/A
CALUMET HARBOR   0300            30  140/  3/  6 1025.0R
BURNS HARBOR     0300            27  140/  1/  6 1027.1R
MICHIGAN CITY    0300            25  120/  4/  5   N/A
$$

ABBREVIATIONS USED IN REMARKS
   TC - TEMPERATURE IN CELSIUS
  WCI - WIND CHILL INDEX
   HX - HEAT INDEX
  VSB - VISIBILITY
$$



USA.gov is the U.S. government's official web portal to all federal, state and local government web resources and services.